EJA176 KLAX-KSAN

Flight info

Callsign EJA176
Flight time 0h 28m
Altitude 13000
Route LAXX1 MZB
Aircraft CL60/M-SADE3FGHIJ3J4J7P2RWXY/HB1D1

Departure

Time 2026-04-21 03:38
Airport Los Angeles International Airport (KLAX)

Arrival

Time 2026-04-21 04:06
Airport San Diego International Airport (KSAN)
Time Latitude Longitude Altitude Speed Heading
2026-04-21 03:13 33.93265 -118.39809 115 ft 0 kts 354°
2026-04-21 03:31 33.93272 -118.39809 115 ft 4 kts 354°
2026-04-21 03:32 33.93327 -118.39817 115 ft 9 kts 354°
2026-04-21 03:32 33.93406 -118.39819 114 ft 13 kts 354°
2026-04-21 03:32 33.93463 -118.39756 112 ft 15 kts 84°
2026-04-21 03:32 33.93478 -118.39613 109 ft 18 kts 83°
2026-04-21 03:33 33.93495 -118.39447 108 ft 21 kts 83°
2026-04-21 03:33 33.93513 -118.39259 106 ft 23 kts 83°
2026-04-21 03:33 33.93534 -118.39059 106 ft 24 kts 83°
2026-04-21 03:33 33.93557 -118.38841 103 ft 27 kts 82°
2026-04-21 03:34 33.93580 -118.38605 103 ft 28 kts 83°
2026-04-21 03:34 33.93595 -118.38451 102 ft 12 kts 84°
2026-04-21 03:34 33.93608 -118.38336 100 ft 15 kts 82°
2026-04-21 03:34 33.93613 -118.38313 100 ft 10 kts 67°
2026-04-21 03:35 33.93685 -118.38287 100 ft 12 kts 350°
2026-04-21 03:35 33.93729 -118.38347 100 ft 10 kts 263°
2026-04-21 03:35 33.93727 -118.38368 100 ft 0 kts 263°
2026-04-21 03:36 33.93726 -118.38371 100 ft 6 kts 263°
2026-04-21 03:37 33.93688 -118.38744 103 ft 81 kts 264°
2026-04-21 03:37 33.93592 -118.39670 110 ft 138 kts 262°
2026-04-21 03:37 33.93481 -118.40980 229 ft 168 kts 264°
2026-04-21 03:37 33.93373 -118.42377 682 ft 176 kts 266°
2026-04-21 03:38 33.93293 -118.43952 1091 ft 192 kts 266°
2026-04-21 03:38 33.93196 -118.45599 1636 ft 202 kts 261°
2026-04-21 03:38 33.92882 -118.46648 2063 ft 203 kts 238°
2026-04-21 03:38 33.91772 -118.48457 2972 ft 206 kts 232°
2026-04-21 03:39 33.90889 -118.49841 3721 ft 211 kts 232°
2026-04-21 03:39 33.90294 -118.50766 4287 ft 212 kts 229°
2026-04-21 03:39 33.89096 -118.51826 4955 ft 218 kts 205°
2026-04-21 03:39 33.88647 -118.52070 5228 ft 218 kts 203°
2026-04-21 03:40 33.86157 -118.53285 6046 ft 250 kts 201°
2026-04-21 03:40 33.85625 -118.53540 6211 ft 256 kts 201°
2026-04-21 03:40 33.80950 -118.55788 8416 ft 273 kts 202°
2026-04-21 03:41 33.78617 -118.56909 9787 ft 275 kts 201°
2026-04-21 03:41 33.77428 -118.57478 10458 ft 276 kts 202°
2026-04-21 03:41 33.74963 -118.58653 11053 ft 304 kts 201°
2026-04-21 03:41 33.73604 -118.59301 11366 ft 317 kts 201°
2026-04-21 03:42 33.70720 -118.60386 11909 ft 334 kts 186°
2026-04-21 03:42 33.68416 -118.60084 11973 ft 336 kts 162°
2026-04-21 03:42 33.66405 -118.58605 11968 ft 339 kts 138°
2026-04-21 03:42 33.65117 -118.56239 11972 ft 346 kts 113°
2026-04-21 03:43 33.64582 -118.53396 11973 ft 350 kts 102°
2026-04-21 03:43 33.64286 -118.51472 11970 ft 349 kts 108°
2026-04-21 03:43 33.63274 -118.48879 11980 ft 346 kts 125°
2026-04-21 03:43 33.62412 -118.47222 11976 ft 350 kts 125°
2026-04-21 03:44 33.60679 -118.43855 11980 ft 356 kts 124°
2026-04-21 03:44 33.58931 -118.40441 11984 ft 368 kts 124°
2026-04-21 03:44 33.58021 -118.38663 11985 ft 375 kts 124°
2026-04-21 03:44 33.56174 -118.35046 11984 ft 380 kts 124°
2026-04-21 03:45 33.55269 -118.33270 11983 ft 380 kts 124°
2026-04-21 03:45 33.53415 -118.29631 11985 ft 379 kts 124°
2026-04-21 03:45 33.52502 -118.27841 11988 ft 379 kts 124°
2026-04-21 03:45 33.51120 -118.25128 11983 ft 379 kts 124°
2026-04-21 03:46 33.49760 -118.22460 11992 ft 379 kts 124°
2026-04-21 03:46 33.47906 -118.18823 11987 ft 379 kts 124°
2026-04-21 03:46 33.47000 -118.17045 11988 ft 379 kts 124°
2026-04-21 03:46 33.45136 -118.13396 12211 ft 393 kts 124°
2026-04-21 03:47 33.44180 -118.11523 12625 ft 395 kts 124°
2026-04-21 03:47 33.42247 -118.07735 12966 ft 396 kts 124°
2026-04-21 03:47 33.41287 -118.05854 12983 ft 394 kts 124°
2026-04-21 03:47 33.39399 -118.02158 12981 ft 389 kts 124°
2026-04-21 03:48 33.38454 -118.00308 12983 ft 387 kts 124°
2026-04-21 03:48 33.37029 -117.97523 12977 ft 386 kts 124°
2026-04-21 03:48 33.35626 -117.94782 12983 ft 386 kts 124°
2026-04-21 03:48 33.34228 -117.92054 12984 ft 386 kts 124°
2026-04-21 03:49 33.33285 -117.90214 12988 ft 386 kts 124°
2026-04-21 03:49 33.31421 -117.86578 12981 ft 386 kts 124°
2026-04-21 03:49 33.29535 -117.82906 12986 ft 386 kts 124°
2026-04-21 03:49 33.28125 -117.80161 12980 ft 386 kts 124°
2026-04-21 03:50 33.26709 -117.77409 12979 ft 387 kts 124°
2026-04-21 03:50 33.25312 -117.74693 12979 ft 386 kts 124°
2026-04-21 03:50 33.23897 -117.71944 12990 ft 387 kts 124°
2026-04-21 03:50 33.22494 -117.69222 12980 ft 387 kts 124°
2026-04-21 03:51 33.21076 -117.66472 12986 ft 387 kts 124°
2026-04-21 03:51 33.19662 -117.63731 12982 ft 387 kts 124°
2026-04-21 03:51 33.18236 -117.60970 12988 ft 386 kts 124°
2026-04-21 03:51 33.16822 -117.58239 12988 ft 386 kts 124°
2026-04-21 03:52 33.15243 -117.55707 12996 ft 382 kts 133°
2026-04-21 03:52 33.13482 -117.53378 12995 ft 367 kts 134°
2026-04-21 03:52 33.11813 -117.51168 12992 ft 345 kts 134°
2026-04-21 03:52 33.10242 -117.49088 12994 ft 326 kts 134°
2026-04-21 03:53 33.08770 -117.47140 12995 ft 308 kts 135°
2026-04-21 03:53 33.07372 -117.45293 12993 ft 297 kts 134°
2026-04-21 03:53 33.05970 -117.43444 12997 ft 299 kts 134°
2026-04-21 03:53 33.04577 -117.41607 12999 ft 300 kts 135°
2026-04-21 03:54 33.03164 -117.39744 12995 ft 300 kts 134°
2026-04-21 03:54 33.01740 -117.37865 12721 ft 306 kts 134°
2026-04-21 03:54 33.00314 -117.35982 12322 ft 305 kts 134°
2026-04-21 03:54 32.98895 -117.34109 11928 ft 303 kts 135°
2026-04-21 03:55 32.97492 -117.32256 11533 ft 301 kts 135°
2026-04-21 03:55 32.96560 -117.31027 11274 ft 299 kts 135°
2026-04-21 03:55 32.94700 -117.28572 10743 ft 297 kts 134°
2026-04-21 03:55 32.93319 -117.26749 10310 ft 293 kts 134°
2026-04-21 03:56 32.91971 -117.24971 9957 ft 284 kts 134°
2026-04-21 03:56 32.90669 -117.23253 9590 ft 276 kts 134°
2026-04-21 03:56 32.89405 -117.21587 9233 ft 269 kts 134°
2026-04-21 03:56 32.88161 -117.19947 8888 ft 262 kts 134°
2026-04-21 03:57 32.86955 -117.18359 8535 ft 256 kts 134°
2026-04-21 03:57 32.85766 -117.16795 8202 ft 250 kts 134°
2026-04-21 03:57 32.84621 -117.15288 7877 ft 244 kts 134°
2026-04-21 03:57 32.83495 -117.13808 7558 ft 239 kts 134°
2026-04-21 03:58 32.82394 -117.12360 7244 ft 233 kts 134°
2026-04-21 03:58 32.81306 -117.10931 6938 ft 229 kts 134°
2026-04-21 03:58 32.80248 -117.09541 6674 ft 229 kts 134°
2026-04-21 03:58 32.79153 -117.08106 6321 ft 231 kts 134°
2026-04-21 03:59 32.78107 -117.06670 6034 ft 230 kts 124°
2026-04-21 03:59 32.77519 -117.04976 5999 ft 214 kts 106°
2026-04-21 03:59 32.77127 -117.03321 5964 ft 201 kts 107°
2026-04-21 04:00 32.76369 -117.00215 5241 ft 191 kts 107°
2026-04-21 04:00 32.75999 -116.98704 5175 ft 186 kts 108°
2026-04-21 04:00 32.75447 -116.97294 5003 ft 190 kts 126°
2026-04-21 04:00 32.74543 -116.96246 4810 ft 176 kts 148°
2026-04-21 04:01 32.73445 -116.95671 4759 ft 166 kts 165°
2026-04-21 04:01 32.72343 -116.95505 4403 ft 163 kts 182°
2026-04-21 04:01 32.71277 -116.95753 4192 ft 152 kts 200°
2026-04-21 04:01 32.70320 -116.96356 3985 ft 155 kts 216°
2026-04-21 04:02 32.69568 -116.97253 3784 ft 153 kts 233°
2026-04-21 04:02 32.69082 -116.98365 3600 ft 154 kts 251°
2026-04-21 04:02 32.68883 -116.99607 3407 ft 154 kts 267°
2026-04-21 04:02 32.68994 -117.00878 3204 ft 153 kts 284°
2026-04-21 04:03 32.69280 -117.02088 3022 ft 153 kts 286°
2026-04-21 04:03 32.69564 -117.03288 2780 ft 150 kts 286°
2026-04-21 04:03 32.69845 -117.04473 2660 ft 145 kts 286°
2026-04-21 04:03 32.70124 -117.05668 2466 ft 152 kts 286°
2026-04-21 04:04 32.70405 -117.06844 2230 ft 147 kts 286°
2026-04-21 04:04 32.70596 -117.07630 2081 ft 148 kts 287°
2026-04-21 04:04 32.70884 -117.08811 1845 ft 151 kts 287°
2026-04-21 04:04 32.71176 -117.10013 1628 ft 152 kts 286°
2026-04-21 04:05 32.71564 -117.11611 1287 ft 147 kts 286°
2026-04-21 04:05 32.71848 -117.12746 1044 ft 144 kts 287°
2026-04-21 04:05 32.72123 -117.13894 832 ft 144 kts 286°
2026-04-21 04:05 32.72397 -117.15037 630 ft 143 kts 286°
2026-04-21 04:06 32.72677 -117.16183 426 ft 143 kts 286°
2026-04-21 04:06 32.72954 -117.17318 219 ft 144 kts 286°
2026-04-21 04:06 32.73224 -117.18433 21 ft 136 kts 285°
2026-04-21 04:06 32.73399 -117.19084 22 ft 18 kts 328°
2026-04-21 04:07 32.73468 -117.19081 22 ft 19 kts 28°
2026-04-21 04:07 32.73486 -117.19039 22 ft 4 kts 93°
2026-04-21 04:07 32.73480 -117.19012 22 ft 5 kts 105°
2026-04-21 04:07 32.73461 -117.18932 22 ft 8 kts 106°
2026-04-21 04:08 32.73441 -117.18854 22 ft 11 kts 107°
2026-04-21 04:08 32.73417 -117.18755 22 ft 13 kts 106°
2026-04-21 04:08 32.73409 -117.18720 22 ft 14 kts 105°
2026-04-21 04:08 32.73370 -117.18557 22 ft 16 kts 105°